Other Public Products
Issued by NWS Grand Forks, ND

Home | Current Version | Previous Version | Text Only | Print | Product List | Glossary On
Versions: 1 2 3 4 5 6 7 8 9 10 11 12 13 14 15 16 17 18 19 20 21 22 23 24 25 26 27 28 29 30 31 32 33 34 35 36 37 38 39 40 41 42 43 44 45 46 47 48 49 50
000
FPUS83 KFGF 280831
OPUFGF
PRAIRIE TO PINES WEATHER ROUNDUP
NATIONAL WEATHER SERVICE EASTERN NORTH DAKOTA/GRAND FORKS ND
300 AM CDT TUE MAR 28 2017

 **SATELLITE DATA USED TO AUGMENT SKY COVER AT AUTOMATED STATIONS**
 *****  WEATHER ACROSS EASTERN NORTH DAKOTA  *****

CITY           SKY/WX    TMP DP  RH WIND       PRES   REMARKS
GRAND FORKS    LGT RAIN  35  34  96 N12       30.10F
GRAND FORKS AF CLOUDY    34  34  99 N12       30.11R
GRAND CITY NWS NOT AVBL
BUXTON         NOT AVBL
DEVILS LAKE    FAIR      33  31  92 E6        30.10R
FARGO          FOG       36  36 100 N7        30.08S VSB 1/4
WAHPETON ARPT  CLOUDY    32  30  93 N9        30.08R VSB 1/4 WCI  24
$$

 *****  WEATHER ACROSS CENTRAL AND WESTERN NORTH DAKOTA  *****

CITY           SKY/WX    TMP DP  RH WIND       PRES   REMARKS
JAMESTOWN      FOG       34  34 100 NE5       30.07S VSB 1/4
BISMARCK       FAIR      35  32  88 NE8       30.03S
MINOT          CLOUDY    35  34  96 NE12      30.07F FOG
MINOT AFB      CLOUDY    34  34  99 NE10      30.07F
GARRISON         N/A     34  34 100 NE6       30.03S
WILLISTON      MOCLDY    38  35  89 E7        30.01S
DICKINSON      FAIR      34  30  85 S12       29.95F
HETTINGER      FAIR      37  31  78 E8        29.98S
$$

 *****  OTHER OBSERVATIONS NORTHEAST NORTH DAKOTA  *****

CITY           SKY/WX    TMP DP  RH WIND       PRES   REMARKS
WALHALLA       NOT AVBL
LANGDON        PTSUNNY   34  30  86 NE14      30.11S WCI  24
CAVALIER       FAIR      34  30  86 NW9       30.14R
GRAFTON        PTSUNNY   34  34 100 N8        30.14F
CANDO          NOT AVBL
FORT TOTTEN      N/A     35  35 100 E9        29.95S
ROLLA          CLOUDY    32  32 100 NE9       30.12R WCI  24
RUGBY          NOT AVBL
 ***** THE ABOVE OBSERVATIONS ARE NON NWS ARE NOT QUALITY
        CONTROLLED AND MAY MIS-REPORT RAIN FOR SNOW...
$$

 *****  OTHER OBSERVATIONS SOUTHEAST NORTH DAKOTA *****

CITY           SKY/WX    TMP DP  RH WIND       PRES   REMARKS
COOPERSTOWN    FAIR      32  32 100 N5        30.09S FOG
VALLEY CITY    FOG       32  32 100 NE6       30.09S VSB<1/4
OAKES          NOT AVBL
GWINNER        FOG       32  32 100 MISG      30.08S VSB 0
SHEYENNE NWR     N/A     34  34 100 N7        29.95S
BUFFALO        NOT AVBL
WYNDMERE         N/A     34  34 100 NW5         N/A
 ***** THE ABOVE OBSERVATIONS ARE NON NWS ARE NOT QUALITY
       CONTROLLED AND MAY MIS-REPORT RAIN FOR SNOW...
$$

  *****  WEATHER ACROSS NORTHERN MINNESOTA  *****

CITY           SKY/WX    TMP DP  RH WIND       PRES   REMARKS
FLAG ISLAND    FAIR      34  28  80 NW7       30.11R
WARROAD        MOCLDY    37  30  75 N6        30.12R
ROSEAU         FAIR      36  30  80 CALM      30.11S
HALLOCK        FAIR      34  30  86 N5        30.12S
THF RVR FALLS  FAIR     N/A N/A N/A N7        30.10S
HALSTAD          N/A     33  34 100 N10         N/A
FOSSTON        MOCLDY    32  28  86 N3        30.08R
BAUDETTE       MOCLDY    34  28  79 NW3       30.09R
WASKISH        FAIR      34  30  86 CALM      30.08R
CROOKSTON      CLOUDY    34  34 100 N7        30.11S FOG
$$
  *****  WEATHER ACROSS CENTRAL AND WEST MINNESOTA  *****

CITY           SKY/WX    TMP DP  RH WIND       PRES   REMARKS
BEMIDJI        FAIR      31  27  84 CALM      30.05F
PARK RAPIDS    FAIR      31  23  72 CALM      30.06R
WADENA         FAIR      30  28  93 CALM      30.06R
DETROIT LAKES  FOG       32  32 100 NW5       30.07S VSB 1/2
MOORHEAD       DRZL/FOG  34  34 100 N7        30.09S VSB 1/4
FERGUS FALLS   FAIR      37  37 100 SE5       30.09S
ELBOW LAKE     FAIR      33  33  98 SE5       30.07R
MORRIS MN      FAIR      34  30  86 CALM      30.06S
STAPLES        FAIR      30  28  93 CALM      30.07
WHEATON        FAIR      36  34  93 CALM      30.08F
$$
  *****  WEATHER ELSEWHERE ACROSS MINNESOTA  *****

CITY           SKY/WX    TMP DP  RH WIND       PRES   REMARKS
DULUTH         FAIR      28  26  92 CALM      30.06R
INTRNTL FALLS  CLOUDY    39  28  64 N3        30.08R
ELY            CLOUDY    27  25  93 CALM      30.06R
CLOQUET        FAIR      27  25  93 NW6       30.07R WCI  20
BRAINERD       FAIR      26  25  96 CALM      30.07R
HIBBING        FAIR      24  24 100 CALM      30.07R
ALEXANDRIA     FAIR      38  32  79 NW3       30.07S
SAINT CLOUD    FAIR      30  29  96 N3        30.06R
MINNEAPOLIS    FAIR      38  34  85 CALM      30.06R
$$

  *****  WEATHER ACROSS SOUTH DAKOTA  *****

CITY           SKY/WX    TMP DP  RH WIND       PRES   REMARKS
SIOUX FALLS    FAIR      34  33  96 CALM      30.06R
BROOKINGS      MOCLDY    40  35  83 E5        30.05R
WATERTOWN      CLOUDY    39  35  86 CALM      30.05R
HURON          FAIR      39  36  89 SE8       30.04R
SISSETON         N/A     33  30  88 NW3       30.05F
ABERDEEN       FAIR      32  32 100 N8        30.05R WCI  25
MITCHELL       FAIR      37  36  96 SE6       30.04F
PIERRE         FAIR      37  32  82 E8        29.99R
MOBRIDGE       FAIR      40  31  70 E8        29.98F
RAPID CITY     FAIR      39  33  79 N9        29.94F
$$

  *****  SOME WEATHER IN NEARBY STATES *****

CITY           SKY/WX    TMP DP  RH WIND       PRES   REMARKS
GLASGOW MT     FAIR      37  33  85 E9        29.97R
GREAT FALLS MT FAIR      32  27  81 SW12      30.04S WCI  23
CHEYENNE WY    CLOUDY    40  38  93 N9        29.87S
SCOTTSBLUFF NE LGT RAIN  48  45  89 S6        29.90R
OMAHA NE       MOCLDY    35  32  88 NW7       30.05R
DES MOINES IA  CLOUDY    47  41  80 NE3       30.04S
DAVENPORT IA   CLOUDY    47  44  90 N6        30.01R
CHICAGO IL     CLOUDY    42  35  76 N10       29.99R
EAU CLAIRE WI  FAIR      28  27  96 W3        30.05S FOG
LA CROSSE WI   FAIR      36  35  96 N7        30.06R
$$

  *****  SOME NATIONAL WEATHER *****

CITY           SKY/WX    TMP DP  RH WIND       PRES   REMARKS
LA GUARDIA NY  FOG       43  41  93 NE6       29.96S VSB 1/4
RALEIGH NC     MOCLDY    64  55  72 SW13      29.94F
ATLANTA GA     LGT RAIN  64  60  87 NW9       29.97R
NEW ORLEANS LA MOCLDY    70  69  97 S5        29.94F
OKLAHOMA CITY  FAIR      50  47  89 E8        29.94F
ALBUQUERQUE NM MOCLDY    50  37  61 NW3       29.84F
SALT LAKE CITY MOCLDY    41  34  76 N14       30.01R
LOS ANGELES CA FAIR      63  36  36 W8G21     30.00R
BOISE ID       FAIR      39  32  76 NW8       30.19R
SEATTLE WA     LGT RAIN  45  43  93 S9        30.27S
$$

*** WEATHER ACROSS MANITOBA...SASKATCHEWAN AND ONTARIO ***
                ***ONTARIO***

CITY           SKY/WX    TMP DP  RH WIND       PRES   REMARKS
GERALDTON      PTCLDY    28  23  80 NE7       30.07R WCI  21
THUNDER BAY    MOCLDY    28  27  93 SW7       30.07R WCI  21
SIOUX LOOKOUT  PTCLDY    28  21  74 N3        30.11R
TORONTO        CLOUDY    45  43  93 N12       29.89R
BIG TROUT LK   FLURRIES  16  10  79 N7        30.21R WCI   6
PICKLE LAKE    NOT AVBL
DRYDEN         PTCLDY    32  25  74 NE7       30.09R
KENORA         PTCLDY    32  25  74 NE8       30.11R WCI  25
$$
                *** MANITOBA***

CITY           SKY/WX    TMP DP  RH WIND       PRES   REMARKS
BRANDON        PTCLDY    28  25  86 NE12      30.15S WCI  18
DAUPHIN        CLOUDY    28  25  86 E9        30.21S WCI  20
ISLAND LAKE    PTCLDY    12   9  85 N3        30.28R
PILOT MOUND      N/A     32  27  80 NE5         N/A
THE PAS        CLEAR     19  14  79 SE5       30.25S WCI  13
THOMPSON       CLEAR      0  -6  78 NE5       30.33  WCI -10
WINNIPEG       MOCLDY    30  27  86 NE9       30.17R WCI  22
LYNN LAKE      PTCLDY     9   7  92 E2        30.29R
CHURCHILL      FOG       -4  -8  84 NW5       30.42R VSB 3/8 WCI -15
GILLAM         FLURRIES   5   1  85 NE5       30.35R WCI  -4
$$
                ***SASKATCHEWAN***

CITY           SKY/WX    TMP DP  RH WIND       PRES   REMARKS
ESTEVAN        CLOUDY    34  32  93 E14       30.06F WCI  24
KINDERSLEY     MOCLDY    37  34  87 SE13      29.94F
LLOYDMINSTER   CLOUDY    34  34 100 SE10      29.97S
PRINCE ALBERT  CLOUDY    30  25  80 E8        30.12F WCI  23
REGINA         CLEAR     34  32  93 E13       30.07R WCI  25
YORKTON        CLOUDY    32  27  80 SE7       30.15R


USA.gov is the U.S. government's official web portal to all federal, state and local government web resources and services.